CDT,Max TemperatureF,Mean TemperatureF,Min TemperatureF,Max Dew PointF,MeanDew PointF,Min DewpointF,Max Humidity, Mean Humidity, Min Humidity, Max Sea Level PressureIn, Mean Sea Level PressureIn, Min Sea Level PressureIn, Max VisibilityMiles, Mean VisibilityMiles, Min VisibilityMiles, Max Wind SpeedMPH, Mean Wind SpeedMPH, Max Gust SpeedMPH,PrecipitationIn, CloudCover, Events, WindDirDegrees
2013-3-1,37,34,31,32,30,26,100,88,76,30.17,30.11,30.07,10,4,1,16,9,20,T,8,Snow,320
2013-3-2,35,32,28,27,23,17,85,70,54,30.25,30.21,30.15,10,9,5,23,12,29,T,7,Snow,336
2013-3-3,41,31,21,28,21,17,88,67,45,30.24,30.16,30.07,10,10,10,10,4,12,0.00,3,,228
2013-3-4,54,45,35,43,32,23,82,64,46,30.09,29.89,29.77,10,10,10,24,12,35,0.01,5,Rain,126
2013-3-5,47,40,33,41,31,21,96,72,48,30.12,29.93,29.75,10,8,1,31,15,40,0.10,7,Rain-Snow,305
2013-3-6,44,36,28,27,24,21,78,64,49,30.36,30.30,30.13,10,10,2,24,11,33,0.00,6,,340
2013-3-7,48,37,25,31,26,23,92,69,45,30.43,30.37,30.33,10,10,7,9,2,12,0.00,0,,95
2013-3-8,55,41,27,32,29,25,92,64,35,30.45,30.34,30.22,10,10,7,13,6,16,0.00,0,,95
2013-3-9,68,55,42,39,34,29,62,47,32,30.21,30.05,29.90,10,10,10,23,12,28,0.00,3,,143
2013-3-10,64,56,48,54,47,37,93,70,47,29.89,29.78,29.70,10,8,2,30,14,41,0.25,6,Rain,180
2013-3-11,49,40,31,45,34,28,89,80,70,30.03,29.86,29.76,10,10,10,20,11,24,0.00,7,,260
2013-3-12,53,40,27,29,27,24,92,64,35,30.22,30.12,30.04,10,10,10,20,7,24,0.00,2,,280
2013-3-13,46,37,27,26,21,18,72,53,33,30.43,30.35,30.22,10,10,10,20,9,24,0.00,1,,330
2013-3-14,50,36,22,32,27,21,88,67,46,30.43,30.31,30.12,10,10,10,16,5,20,T,4,,164
2013-3-15,74,52,29,52,41,27,92,68,44,30.11,29.93,29.76,10,10,7,23,8,30,0.00,0,,191
2013-3-16,67,55,43,50,44,36,80,68,56,29.99,29.86,29.73,10,9,5,23,13,26,0.00,1,,320
2013-3-17,43,40,36,41,37,34,93,83,73,30.07,29.94,29.74,10,5,2,23,12,28,1.13,8,Rain-Thunderstorm,44
2013-3-18,52,44,35,43,39,33,96,79,61,30.00,29.78,29.67,10,8,2,23,8,29,0.19,6,Rain-Thunderstorm,289
2013-3-19,52,42,31,32,23,17,82,54,26,30.22,30.17,30.04,10,10,10,18,7,23,0.00,3,,340
2013-3-20,46,37,28,32,24,15,92,62,31,30.25,30.18,30.11,10,10,10,24,10,31,0.00,2,,324
2013-3-21,41,32,22,26,17,12,92,63,33,30.14,30.07,30.00,10,10,10,12,4,16,0.00,2,,314
2013-3-22,42,37,32,29,26,22,85,67,49,30.05,30.01,29.97,10,9,2,10,6,15,T,8,Snow,86
2013-3-23,55,47,39,41,31,26,76,61,45,30.01,29.91,29.76,10,9,3,16,10,20,0.05,8,Rain,46
2013-3-24,44,39,33,41,35,27,96,86,75,29.83,29.63,29.49,10,6,2,30,16,40,0.07,8,Rain-Snow,336
2013-3-25,40,36,31,31,27,23,89,74,59,30.21,30.02,29.85,10,9,2,24,15,30,0.01,8,Snow,299
2013-3-26,47,37,26,28,25,23,85,63,41,30.38,30.30,30.22,10,10,4,16,7,26,T,3,Snow,315
2013-3-27,51,37,23,32,26,22,100,70,39,30.43,30.37,30.31,10,9,5,10,2,16,0.00,1,,152
2013-3-28,59,49,39,40,35,32,85,63,40,30.38,30.31,30.24,10,10,10,13,5,16,T,7,,104
2013-3-29,58,48,38,49,45,40,100,86,72,30.25,30.22,30.18,10,6,0,18,5,22,0.52,6,Fog-Rain,86
2013-3-30,52,45,37,49,45,36,100,92,83,30.21,30.07,29.92,6,2,0,12,4,13,0.22,8,Fog-Rain,114
2013-3-31,65,56,47,52,49,45,100,76,52,29.96,29.91,29.86,10,5,0,10,4,13,T,6,Fog-Rain,219